Date String (YYYY-MM-DD hh:mm:ss) UTC,Instrument flags,absolute air pressure of the measurement (hPa),sample flow rate (lpm),inlet stack bypass flow (lpm),air temperature of the measurement (°C),ambient temperature measured by the external sensor (°C),aerosol sample conditioner tube jacket temperature (°C),OPC LED temperature (°C),internal box temperature (°C),relative humidity of the measurement (%),span deviation,mass concentration of particles derived from Lorenz-Mie calculation of OPC scattering (μg/m³),mass concentration of particles derived from Lorenz-Mie calculation of OPC scattering (μg/m³),mass concentration of particles derived from Lorenz-Mie calculation of OPC scattering (μg/m³)
DateTimeUTC,F1_M11,P_M11,Q1_M11,Q2_M11,T1_M11,T2_M11,T3_M11,T4_M11,T5_M11,U1_M11,ZSPAN_M11,X0_M11,X2_M11,X1_M11
2023-12-28 06:00:00,SystemResetWarning,0832.2,5.01,000.00,020.6,019.5,000.0,029.0,021.9,10.9,0000.0,0005.62,0001.86,0001.19
2023-12-28 06:01:00,SystemResetWarning,0832.3,5.00,000.00,020.6,019.5,000.0,029.0,021.9,10.9,0000.0,0006.18,0001.89,0001.21
2023-12-28 06:02:00,SystemResetWarning,0832.2,4.99,000.00,020.6,019.5,000.0,029.0,021.9,11.0,0000.0,0006.30,0001.88,0001.23
2023-12-28 06:03:00,SystemResetWarning,0832.2,5.00,000.00,020.6,019.4,000.0,029.0,021.9,11.0,0000.0,0006.69,0001.87,0001.25
2023-12-28 06:04:00,SystemResetWarning,0832.2,5.00,000.00,020.6,019.4,000.0,029.0,021.9,11.0,0000.0,0006.44,0001.83,0001.25
2023-12-28 06:05:00,SystemResetWarning,0832.2,5.00,000.00,020.6,019.4,000.0,029.0,021.9,10.9,0000.0,0007.16,0001.81,0001.25
2023-12-28 06:06:00,SystemResetWarning,0832.2,5.00,000.00,020.6,019.4,000.0,029.0,021.9,10.9,0000.0,0007.61,0001.83,0001.26
2023-12-28 06:07:00,SystemResetWarning,0832.2,5.00,000.00,020.6,019.5,000.0,029.0,021.9,10.9,0000.0,0008.27,0001.86,0001.27
2023-12-28 06:08:00,SystemResetWarning,0832.2,5.00,000.00,020.6,019.5,000.0,029.0,021.9,10.9,0000.0,0008.37,0001.89,0001.27
2023-12-28 06:09:00,SystemResetWarning,0832.2,5.00,000.00,020.6,019.5,000.0,028.9,021.9,10.9,0000.0,0008.78,0001.90,0001.26
2023-12-28 06:10:00,SystemResetWarning,0832.2,5.00,000.00,020.6,019.4,000.0,028.9,021.9,11.0,0000.0,0009.07,0001.90,0001.25
2023-12-28 06:11:00,SystemResetWarning,0832.2,5.00,000.00,020.6,019.4,000.0,028.9,021.9,11.0,0000.0,0008.94,0001.89,0001.24
2023-12-28 06:12:00,SystemResetWarning,0832.2,5.00,000.00,020.6,019.4,000.0,028.9,021.9,11.0,0000.0,0008.53,0001.82,0001.23
2023-12-28 06:13:00,SystemResetWarning,0832.2,5.00,000.00,020.6,019.4,000.0,028.9,021.9,11.1,0000.0,0008.35,0001.77,0001.21
2023-12-28 06:14:00,SystemResetWarning,0832.2,5.00,000.00,020.6,019.4,000.0,028.9,021.9,11.1,0000.0,0008.60,0001.77,0001.18
2023-12-28 06:15:00,SystemResetWarning,0832.2,5.00,000.00,020.5,019.4,000.0,028.9,021.8,10.5,0000.0,0008.59,0001.79,0001.17
2023-12-28 06:16:00,SystemResetWarning,0832.2,5.01,000.00,020.5,019.3,000.0,028.9,021.8,9.7,0000.0,0008.01,0001.81,0001.17
2023-12-28 06:17:00,SystemResetWarning,0832.2,5.00,000.00,020.5,019.3,000.0,028.9,021.8,9.5,0000.0,0006.96,0001.78,0001.15
2023-12-28 06:18:00,SystemResetWarning,0832.2,5.00,000.00,020.5,019.3,000.0,028.9,021.7,9.3,0000.0,0005.47,0001.71,0001.13
2023-12-28 06:19:00,SystemResetWarning,0832.2,5.00,000.00,020.5,019.2,000.0,028.9,021.7,9.2,0000.0,0005.32,0001.70,0001.11
2023-12-28 06:20:00,SystemResetWarning,0832.1,5.00,000.00,020.5,019.2,000.0,028.9,021.7,9.1,0000.0,0005.01,0001.67,0001.10
2023-12-28 06:21:00,SystemResetWarning,0832.1,5.00,000.00,020.4,019.2,000.0,028.8,021.7,9.1,0000.0,0004.38,0001.65,0001.09
2023-12-28 06:22:00,SystemResetWarning,0832.1,5.00,000.00,020.4,019.2,000.0,028.8,021.7,9.1,0000.0,0004.72,0001.66,0001.08
2023-12-28 06:23:00,SystemResetWarning,0832.0,5.00,000.00,020.4,019.1,000.0,028.8,021.6,9.1,0000.0,0004.95,0001.67,0001.07
2023-12-28 06:24:00,SystemResetWarning,0832.1,5.00,000.00,020.4,019.1,000.0,028.8,021.7,9.1,0000.0,0006.24,0001.75,0001.07
2023-12-28 06:25:00,SystemResetWarning,0832.1,5.00,000.00,020.3,019.1,000.0,028.8,021.6,9.1,0000.0,0007.09,0001.72,0001.06
2023-12-28 06:26:00,SystemResetWarning,0832.0,4.99,000.00,020.3,019.1,000.0,028.8,021.6,9.1,0000.0,0006.14,0001.62,0001.02
2023-12-28 06:27:00,SystemResetWarning,0832.0,5.00,000.00,020.3,019.1,000.0,028.8,021.6,9.1,0000.0,0006.05,0001.58,0000.98
2023-12-28 06:28:00,SystemResetWarning,0832.0,5.00,000.00,020.3,019.1,000.0,028.8,021.6,9.0,0000.0,0005.92,0001.49,0000.94
2023-12-28 06:29:00,SystemResetWarning,0832.0,5.00,000.00,020.3,019.1,000.0,028.7,021.6,8.8,0000.0,0005.80,0001.42,0000.91
2023-12-28 06:30:00,SystemResetWarning,0832.0,5.01,000.00,020.3,019.0,000.0,028.7,021.5,8.6,0000.0,0005.62,0001.32,0000.88
2023-12-28 06:31:00,SystemResetWarning,0832.0,5.01,000.00,020.2,019.0,000.0,028.7,021.5,8.5,0000.0,0005.46,0001.24,0000.84
2023-12-28 06:32:00,SystemResetWarning,0832.0,5.01,000.00,020.2,019.0,000.0,028.7,021.5,8.7,0000.0,0005.22,0001.19,0000.80
2023-12-28 06:33:00,SystemResetWarning,0832.0,4.99,000.00,020.2,019.0,000.0,028.7,021.5,8.7,0000.0,0004.75,0001.11,0000.76
2023-12-28 06:34:00,SystemResetWarning,0832.0,5.00,000.00,020.2,019.0,000.0,028.7,021.5,8.8,0000.0,0004.48,0001.08,0000.73
2023-12-28 06:35:00,SystemResetWarning,0831.9,5.00,000.00,020.2,018.9,000.0,028.7,021.5,8.7,0000.0,0003.14,0000.95,0000.70
2023-12-28 06:36:00,SystemResetWarning,0832.0,5.00,000.00,020.2,018.9,000.0,028.6,021.5,8.6,0000.0,0001.83,0000.91,0000.69
2023-12-28 06:37:00,SystemResetWarning,0831.9,5.00,000.00,020.2,018.9,000.0,028.6,021.5,8.6,0000.0,0001.70,0000.91,0000.69
2023-12-28 06:38:00,SystemResetWarning,0831.9,5.00,000.00,020.2,018.9,000.0,028.6,021.4,8.7,0000.0,0001.74,0000.90,0000.70
2023-12-28 06:39:00,SystemResetWarning,0831.9,5.01,000.00,020.2,018.9,000.0,028.6,021.4,8.6,0000.0,0001.71,0000.89,0000.72
2023-12-28 06:40:00,SystemResetWarning,0831.9,5.01,000.00,020.1,018.8,000.0,028.6,021.4,8.6,0000.0,0001.70,0000.89,0000.73
2023-12-28 06:41:00,SystemResetWarning,0831.8,5.00,000.00,020.1,018.8,000.0,028.6,021.4,8.6,0000.0,0001.70,0000.91,0000.74
2023-12-28 06:42:00,SystemResetWarning,0831.8,5.00,000.00,020.1,018.8,000.0,028.6,021.4,8.5,0000.0,0001.51,0000.93,0000.78
2023-12-28 06:43:00,SystemResetWarning,0831.8,5.00,000.00,020.1,018.8,000.0,028.5,021.3,8.6,0000.0,0001.36,0000.95,0000.81
2023-12-28 06:44:00,SystemResetWarning,0831.8,4.99,000.00,020.1,018.8,000.0,028.5,021.3,8.7,0000.0,0001.41,0001.00,0000.85
2023-12-28 06:45:00,SystemResetWarning,0831.8,5.00,000.00,020.0,018.8,000.0,028.5,021.3,8.8,0000.0,0001.38,0001.00,0000.87
2023-12-28 06:46:00,SystemResetWarning,0831.8,5.01,000.00,020.0,018.8,000.0,028.5,021.3,8.8,0000.0,0001.38,0001.00,0000.88
2023-12-28 06:47:00,SystemResetWarning,0831.8,5.01,000.00,020.0,018.7,000.0,028.5,021.2,8.5,0000.0,0001.91,0001.04,0000.89
2023-12-28 06:48:00,SystemResetWarning,0831.8,5.00,000.00,020.0,018.7,000.0,028.5,021.2,8.4,0000.0,0002.00,0001.04,0000.89
2023-12-28 06:49:00,SystemResetWarning,0831.8,4.99,000.00,020.0,018.7,000.0,028.4,021.2,8.4,0000.0,0001.86,0001.03,0000.90
2023-12-28 06:50:00,SystemResetWarning,0831.8,4.99,000.00,020.0,018.7,000.0,028.4,021.2,8.3,0000.0,0001.88,0001.03,0000.88
2023-12-28 06:51:00,SystemResetWarning,0832.0,4.99,000.00,020.0,018.7,000.0,028.4,021.2,8.4,0000.0,0001.87,0001.02,0000.87
2023-12-28 06:52:00,SystemResetWarning,0831.8,5.00,000.00,020.0,018.7,000.0,028.4,021.2,8.5,0000.0,0001.85,0001.00,0000.86
2023-12-28 06:53:00,SystemResetWarning,0831.9,5.00,000.00,019.9,018.6,000.0,028.4,021.2,8.4,0000.0,0001.81,0000.97,0000.83
2023-12-28 06:54:00,SystemResetWarning,0831.9,5.01,000.00,019.9,018.6,000.0,028.4,021.2,8.5,0000.0,0001.79,0000.94,0000.80
2023-12-28 06:55:00,SystemResetWarning,0832.0,5.01,000.00,019.9,018.6,000.0,028.4,021.2,8.5,0000.0,0001.79,0000.91,0000.77
2023-12-28 06:56:00,SystemResetWarning,0832.0,5.00,000.00,019.9,018.6,000.0,028.3,021.2,8.5,0000.0,0001.83,0000.87,0000.72
2023-12-28 06:57:00,SystemResetWarning,0831.8,4.99,000.00,019.9,018.6,000.0,028.3,021.1,8.5,0000.0,0001.82,0000.84,0000.69
2023-12-28 06:58:00,SystemResetWarning,0832.1,4.99,000.00,019.9,018.6,000.0,028.3,021.1,8.5,0000.0,0001.31,0000.80,0000.66
2023-12-28 06:59:00,SystemResetWarning,0832.2,5.00,000.00,019.9,018.6,000.0,028.3,021.1,8.4,0000.0,0001.16,0000.77,0000.64
